Location: Gwatt
(46.7204°N, 7.6223°E)
Time: 17:03:32
(UTC+00:00)

Cosmos 1634 Rocket - Pass Details

Date: 18 September 2020
Orbit: 961 x 991 km, 82.9° (Epoch: 28 October)

Event Time Altitude Azimuth Distance (km) Brightness Sun altitude
Exits shadow 19:34:23 37° 127° (SE) 1,454 4.4 -20.6°
Maximum altitude 19:36:00 45° 90° (E) 1,296 4.2 -20.9°
Drops below altitude 10° 19:41:50 10° 20° (NNE) 2,714 6.4 -21.8°
Sets 19:44:27 0° 14° (NNE) 3,669 7.2 -22.2°
